Weather History for KOOA - January, 2013

Change the Weather History Date:

Thursday, January 24, 2013

  Actual Average (KOTM) Record (KOTM)
Temperature  
Mean Temperature 14 °F 22 °F  
Max Temperature 23 °F 32 °F 59 °F (1967)
Min Temperature 4 °F 13 °F -16 °F (1897)
Degree Days  
Heating Degree Days 52 43  
Month to date heating degree days 1026  
Since 1 July heating degree days 3531  
Cooling Degree Days 0 0  
Month to date cooling degree days 0  
Year to date cooling degree days 0  
Moisture  
Dew Point -2 °F    
Average Humidity 52    
Maximum Humidity 64    
Minimum Humidity 34    
Precipitation  
Precipitation 0.00 in 0.03 in 1.25 in (1938)
Month to date precipitation 0.72  
Year to date precipitation 0.72  
Sea Level Pressure  
Sea Level Pressure 30.47 in    
Wind  
Wind Speed 11 mph (East)    
Max Wind Speed 17 mph    
Max Gust Speed 23 mph    
Visibility 10 miles    
Events      
T = Trace of Precipitation, MM = Missing Value Source: NWS Daily Summary

Daily Weather History Graph

Daily Weather History Graph

Search for Another Location

Airport or City:

Trip Planner

Search our weather history database for the weather conditions in past years. The results will help you decide how hot, cold, wet, or windy it might be!

Date:

Astronomy

Jan. 24, 2013 Rise Set
Actual Time 7:27 AM CST 5:16 PM CST
Civil Twilight 6:58 AM CST 5:46 PM CST
Nautical Twilight 6:24 AM CST 6:20 PM CST
Astronomical Twilight 5:51 AM CST 6:52 PM CST
Moon 3:19 PM CST (1/24) 5:26 AM CST (1/24)
Length of Visible Light 10h 48m
Length of Day
9h 49m
Waxing Gibbous, 94% of the Moon is Illuminated
Jan 24
Waxing Gibbous
Jan 26
Full
Feb 3
Last Quarter
Feb 10
New
Feb 17
First Quarter

Hourly Weather History & Observations

Time (CST) Temp. Windchill Dew Point Humidity Pressure Visibility Wind Dir Wind Speed Gust Speed Precip Events Conditions
12:15 AM 8.4 °F -7.3 °F -2.6 °F 61% 30.50 in 10.0 mi North 12.7 mph - N/A   Clear
12:35 AM 8.1 °F -9.0 °F -2.6 °F 62% 30.50 in 10.0 mi North 15.0 mph - N/A   Clear
12:55 AM 7.7 °F -7.4 °F -2.6 °F 63% 30.50 in 10.0 mi North 11.5 mph - N/A   Clear
1:15 AM 7.5 °F -8.4 °F -2.6 °F 63% 30.52 in 10.0 mi North 12.7 mph - N/A   Clear
1:35 AM 7.3 °F -7.9 °F -2.6 °F 64% 30.52 in 10.0 mi North 11.5 mph - N/A   Clear
1:55 AM 7.0 °F -11.6 °F -3.8 °F 61% 30.51 in 10.0 mi NNE 17.3 mph - N/A   Clear
2:15 AM 6.8 °F -11.8 °F -6.0 °F 56% 30.53 in 10.0 mi NNE 17.3 mph 23.0 mph N/A   Clear
2:35 AM 6.4 °F -7.3 °F -5.8 °F 57% 30.55 in 10.0 mi NNE 9.2 mph - N/A   Clear
2:55 AM 6.3 °F -10.0 °F -6.2 °F 57% 30.55 in 10.0 mi NNE 12.7 mph 17.3 mph N/A   Clear
3:15 AM 5.9 °F -8.9 °F -5.4 °F 60% 30.55 in 10.0 mi NNE 10.4 mph - N/A   Clear
3:35 AM 5.7 °F -10.7 °F -5.4 °F 60% 30.55 in 10.0 mi NNE 12.7 mph - N/A   Clear
3:55 AM 5.5 °F -10.9 °F -5.8 °F 60% 30.56 in 10.0 mi NNE 12.7 mph - N/A   Clear
4:15 AM 5.4 °F -9.6 °F -5.8 °F 60% 30.56 in 10.0 mi NNE 10.4 mph - N/A   Clear
4:35 AM 5.4 °F -11.8 °F -5.8 °F 60% 30.57 in 10.0 mi NNE 13.8 mph - N/A   Clear
4:55 AM 5.4 °F -9.6 °F -5.8 °F 60% 30.57 in 10.0 mi NNE 10.4 mph - N/A   Clear
5:15 AM 5.2 °F -7.9 °F -5.8 °F 61% 30.58 in 10.0 mi NNE 8.1 mph - N/A   Clear
5:35 AM 5.0 °F -10.8 °F -5.8 °F 61% 30.56 in 10.0 mi NE 11.5 mph - N/A   Clear
5:55 AM 5.0 °F -9.1 °F -5.4 °F 62% 30.57 in 10.0 mi NE 9.2 mph - N/A   Clear
6:15 AM 5.0 °F -8.1 °F -5.6 °F 62% 30.57 in 10.0 mi NE 8.1 mph - N/A   Clear
6:35 AM 5.0 °F -6.9 °F -5.4 °F 62% 30.58 in 10.0 mi NE 6.9 mph - N/A   Clear
6:55 AM 4.8 °F -7.1 °F -4.9 °F 64% 30.59 in 10.0 mi NE 6.9 mph - N/A   Clear
7:15 AM 5.0 °F -5.6 °F -4.9 °F 64% 30.58 in 10.0 mi NE 5.8 mph - N/A   Clear
7:35 AM 5.0 °F -6.9 °F -4.9 °F 64% 30.58 in 10.0 mi NE 6.9 mph - N/A   Clear
7:55 AM 5.4 °F -7.6 °F -4.4 °F 64% 30.59 in 10.0 mi NE 8.1 mph - N/A   Clear
8:15 AM 6.1 °F -5.6 °F -4.2 °F 63% 30.61 in 10.0 mi NE 6.9 mph - N/A   Clear
8:35 AM 6.8 °F -4.8 °F -4.4 °F 60% 30.62 in 10.0 mi ENE 6.9 mph - N/A   Clear
8:55 AM 7.7 °F -6.6 °F -4.0 °F 59% 30.61 in 10.0 mi ENE 10.4 mph - N/A   Clear
9:15 AM 9.0 °F -5.1 °F -4.4 °F 55% 30.61 in 10.0 mi East 10.4 mph - N/A   Clear
9:35 AM 10.0 °F -2.9 °F -4.4 °F 52% 30.60 in 10.0 mi East 9.2 mph - N/A   Clear
9:55 AM 10.4 °F -3.3 °F -4.9 °F 50% 30.61 in 10.0 mi East 10.4 mph - N/A   Clear
10:15 AM 11.7 °F -0.9 °F -4.5 °F 48% 30.60 in 10.0 mi East 9.2 mph - N/A   Clear
10:35 AM 11.7 °F -1.7 °F -5.3 °F 47% 30.59 in 10.0 mi East 10.4 mph 16.1 mph N/A   Clear
10:55 AM 12.2 °F -1.8 °F -4.9 °F 46% 30.59 in 10.0 mi ESE 11.5 mph - N/A   Clear
11:15 AM 12.4 °F -0.8 °F -5.1 °F 46% 30.59 in 10.0 mi ESE 10.4 mph - N/A   Clear
11:35 AM 13.5 °F 0.5 °F -4.2 °F 45% 30.58 in 10.0 mi ESE 10.4 mph - N/A   Clear
11:55 AM 13.8 °F 1.0 °F -4.7 °F 44% 30.55 in 10.0 mi ESE 10.4 mph - N/A   Clear
12:15 PM 14.9 °F 2.3 °F -4.4 °F 42% 30.54 in 10.0 mi ESE 10.4 mph - N/A   Clear
12:35 PM 15.4 °F 3.0 °F -4.9 °F 40% 30.52 in 10.0 mi ESE 10.4 mph - N/A   Clear
12:55 PM 16.5 °F 3.0 °F -4.4 °F 40% 30.50 in 10.0 mi ESE 12.7 mph - N/A   Clear
1:15 PM 17.4 °F 5.4 °F -4.7 °F 37% 30.48 in 10.0 mi ESE 10.4 mph 19.6 mph N/A   Clear
1:35 PM 17.8 °F 5.2 °F -4.7 °F 37% 30.47 in 10.0 mi ESE 11.5 mph 19.6 mph N/A   Clear
1:55 PM 18.5 °F 5.5 °F -4.7 °F 36% 30.45 in 10.0 mi ESE 12.7 mph 18.4 mph N/A   Clear
2:15 PM 19.0 °F 6.1 °F -4.0 °F 36% 30.44 in 10.0 mi ESE 12.7 mph - N/A   Clear
2:35 PM 19.4 °F 6.0 °F -4.0 °F 36% 30.42 in 10.0 mi ESE 13.8 mph - N/A   Clear
2:55 PM 20.1 °F 5.9 °F -4.4 °F 34% 30.43 in 10.0 mi SE 16.1 mph - N/A   Clear
5:15 PM 20.3 °F 9.0 °F -0.6 °F 40% 30.36 in 10.0 mi ESE 10.4 mph - N/A   Clear
5:35 PM 20.1 °F 8.1 °F -0.4 °F 41% 30.36 in 10.0 mi SE 11.5 mph - N/A   Clear
5:55 PM 20.1 °F 8.8 °F 0.5 °F 42% 30.35 in 10.0 mi SE 10.4 mph - N/A   Clear
6:15 PM 20.1 °F 8.8 °F 1.2 °F 44% 30.33 in 10.0 mi SE 10.4 mph - N/A   Clear
6:35 PM 20.1 °F 8.8 °F 1.4 °F 44% 30.32 in 10.0 mi SE 10.4 mph - N/A   Clear
6:55 PM 20.1 °F 9.5 °F 2.3 °F 46% 30.32 in 10.0 mi SE 9.2 mph - N/A   Clear
7:15 PM 20.3 °F 8.3 °F 3.0 °F 47% 30.31 in 10.0 mi SE 11.5 mph - N/A   Clear
7:35 PM 20.8 °F 7.9 °F 3.6 °F 47% 30.30 in 10.0 mi SE 13.8 mph - N/A   Clear
7:55 PM 21.2 °F 7.8 °F 3.7 °F 47% 30.27 in 10.0 mi SE 15.0 mph - N/A   Clear
8:15 PM 21.2 °F 7.8 °F 4.1 °F 48% 30.27 in 10.0 mi SE 15.0 mph - N/A   Clear
8:35 PM 21.2 °F 8.9 °F 4.3 °F 48% 30.27 in 10.0 mi SE 12.7 mph - N/A   Clear
8:55 PM 21.7 °F 11.5 °F 5.0 °F 49% 30.29 in 10.0 mi SE 9.2 mph - N/A   Clear
9:15 PM 21.9 °F 11.7 °F 5.5 °F 49% 30.29 in 10.0 mi SE 9.2 mph - N/A   Scattered Clouds
9:35 PM 21.9 °F 11.7 °F 5.9 °F 50% 30.28 in 10.0 mi SE 9.2 mph - N/A   Overcast
9:55 PM 21.9 °F 11.0 °F 6.6 °F 52% 30.26 in 10.0 mi SE 10.4 mph - N/A   Overcast
10:15 PM 22.1 °F 10.6 °F 7.2 °F 53% 30.25 in 10.0 mi SE 11.5 mph - N/A   Overcast
10:35 PM 22.8 °F 9.9 °F 7.2 °F 51% 30.26 in 10.0 mi SSE 15.0 mph - N/A   Overcast
10:55 PM 22.8 °F 12.2 °F 7.3 °F 52% 30.25 in 10.0 mi SSE 10.4 mph - N/A   Overcast
11:15 PM 23.0 °F 11.7 °F 7.3 °F 51% 30.24 in 10.0 mi SSE 11.5 mph - N/A   Overcast
11:35 PM 23.0 °F 13.1 °F 7.5 °F 52% 30.25 in 10.0 mi SSE 9.2 mph - N/A   Overcast
11:55 PM 23.0 °F 12.4 °F 7.9 °F 52% 30.23 in 10.0 mi South 10.4 mph - N/A   Overcast